[Iaude] MPEC M110: 2022 MD3 [a=1.75,e=0.46,i=5.0,H=28.4]

mpec at marsden.cfa.harvard.edu mpec at marsden.cfa.harvard.edu
Thu Jun 30 07:19:02 EDT 2022


M.P.E.C. 2022-M110                                Issued 2022 June 30, 11:17 UT

     The Minor Planet Electronic Circulars contain information on unusual
         minor planets and routine data on comets.  They are published
    on behalf of Division F of the International Astronomical Union by the
          Minor Planet Center, Smithsonian Astrophysical Observatory,
                          Cambridge, MA 02138, U.S.A.

             Prepared using the Tamkin Foundation Computer Network

                              MPC at CFA.HARVARD.EDU
            URL https://www.minorplanetcenter.net/    ISSN 1523-6714

                                    2022 MD3                                    


Observations:
     K22M03D* C2022 06 27.32552516 56 17.378+25 52 17.38         19.8 GVEM110U68
     K22M03D  C2022 06 27.32886716 56 39.383+25 47 05.01         19.8 GVEM110U68
     K22M03D  C2022 06 27.34994716 58 57.492+25 14 09.84         19.7 GVEM110U68
     K22M03D  C2022 06 27.35328816 59 19.226+25 08 56.53         19.7 GVEM110U68
     K22M03D  C2022 06 28.29467618 20 28.002+03 21 32.71         19.5 GVEM110U74
     K22M03D  C2022 06 28.29861118 20 41.544+03 17 11.19         19.5 GVEM110U74
     K22M03D  C2022 06 28.31539418 21 38.887+02 58 38.19         19.5 GVEM110U74
     K22M03D  C2022 06 28.31931718 21 52.205+02 54 19.73         19.5 GVEM110U74
     K22M03D  C2022 06 28.33482618 22 44.476+02 37 23.66         19.4 GVEM110U74
     K22M03D  C2022 06 28.33875018 22 57.658+02 33 07.62         19.4 GVEM110U74
     K22M03D  C2022 06 29.29206119 06 27.907-10 19 09.79         20.4 GVEM110654
     K22M03D  C2022 06 29.31948519 07 17.696-10 35 08.75         19.9 GVEM110654
     K22M03D  C2022 06 29.35456619 08 19.971-10 55 08.69         20.2 GVEM110654
     K22M03D  C2022 06 29.45124519 11 06.547-11 47 38.86         20.0 GVEM110654
     K22M03D IC2022 06 29.91615819 24 25.60 -15 23 05.8          20.5 GVEM110L01
     K22M03D IC2022 06 29.91850619 24 28.80 -15 24 03.5          20.6 GVEM110L01

Observer details:
654 Table Mountain Observatory, Wrightwood-PHMC.  Observers N. Evans, P. Choi,
    N. Saini, C. Zhai, R. Trahan, M. Shao.  1.0-m Reflector + CCD.
L01 Visnjan Observatory, Tican.  Observers K. Korlevic, L. Poropat.  Measurer
    K. Korlevic.  1.0-m f/2.9 reflector + CCD.
U68 JPL SynTrack Robotic Telescope, Auberry.  Observers N. Saini, C. Zhai, R.
    Trahan, M. Zhan, M. Shao.  0.28-m Reflector + CCD.
U74 JPL SynTrack Robotic Telescope 2, Auberry.  Observers N. Saini, C. Zhai,
    R. Trahan, M. Zhan, M. Shao.  0.36-m Reflector + CCD.

Orbital elements:
2022 MD3                                                 Earth MOID = 0.0079 AU
Epoch 2022 Aug. 9.0 TT = JDT 2459800.5                  Veres                   
M  32.23877              (2000.0)            P               Q                  
n   0.42432991     Peri.  134.78375     -0.58314880     +0.80773217             
a   1.7538816      Node    99.35292     -0.76792435     -0.51331218             
e   0.4627416      Incl.    5.03739     -0.26500881     -0.28996439             
P   2.32           H   28.48          G   0.15           U   7                  
Residuals in seconds of arc
220627 U68  0.1-  0.0     220628 U74  0.3-  0.1+    220629 654  0.2+  0.1+
220627 U68  0.2-  0.1+    220628 U74  0.2-  0.1+    220629 654  0.1-  0.3-
220627 U68  0.3+  0.3-    220628 U74  0.2-  0.0     220629 L01  0.9-  0.2+
220627 U68  0.2-  0.1+    220628 U74  0.4+  0.5-    220629 L01  0.2+  0.5-
220628 U74  0.0   0.0     220629 654  0.1-  0.0
220628 U74  0.2-  0.8+    220629 654  0.3+  0.4+

Ephemeris:
2022 MD3                 a,e,i = 1.75, 0.46, 5                   q = 0.9423
Date    TT    R. A. (2000) Decl.     Delta      r    Elong.  Phase     V
2022 05 31    08 56 11.3 +37 21 09   0.1508  0.9442    58.7   113.5    28.6
...
2022 06 15    09 25 14.4 +39 45 09   0.06780 0.9748    51.4   125.5    27.9
...
2022 06 23    10 31 43.4 +46 08 38   0.02455 1.0033    57.4   121.5    25.4
...
2022 06 29    18 55 28.9 -07 03 18   0.01332 1.0294   162.7    17.1    20.1
2022 06 30    19 26 12.9 -15 48 37   0.01791 1.0340   165.8    14.0    20.6
2022 07 01    19 45 05.5 -20 45 23   0.02293 1.0388   164.4    15.3    21.2
...
2022 07 07    20 25 15.5 -29 58 06   0.05554 1.0691   160.3    18.7    23.3
...
2022 07 15    20 36 52.6 -32 25 41   0.1014  1.1137   162.7    15.8    24.6
...
2022 07 30    20 39 38.2 -33 00 28   0.1961  1.2062   165.6    12.1    26.1

M. P. C. Staff               (C) Copyright 2022 MPC           M.P.E.C. 2022-M110




More information about the Iaude mailing list